OE3MNS-13 Weather Reports


time (UTC)temp
C
wind
direction
speed
KPH
gust
KPH
rain 1hr
cm
rain 24hr
cm
rain mn
cm
humidity
%
barometer
mb
20260905222518 18 280 6.4 14.5 0.00 0.10 0.00 68 1023.2
20260905221538 18 282 6.4 12.9 0.00 0.10 0.00 66 1023.2
20260905220519 18 300 6.4 12.9 0.00 0.10 0.00 65 1023.0
20260905215520 19 276 4.8 11.3 0.00 0.10 0.10 64 1022.9
20260905214519 19 271 6.4 17.7 0.00 0.10 0.10 63 1022.8
20260905213519 19 271 6.4 19.3 0.00 0.10 0.10 63 1022.7
20260905212518 19 253 6.4 14.5 0.00 0.10 0.10 63 1022.7
20260905211518 19 263 4.8 14.5 0.00 0.10 0.10 63 1022.6
20260905210524 19 274 4.8 19.3 0.00 0.10 0.10 63 1022.5
20260905205519 19 276 6.4 17.7 0.00 0.10 0.10 62 1022.3
20260905204520 19 266 6.4 17.7 0.00 0.10 0.10 61 1022.6
20260905203517 19 269 6.4 14.5 0.00 0.10 0.10 61 1022.4
20260905202558 19 275 6.4 17.7 0.00 0.10 0.10 62 1022.2
20260905201517 20 284 6.4 16.1 0.00 0.10 0.10 61 1022.2
20260905200539 20 272 8.0 14.5 0.00 0.10 0.10 60 1022.2
20260905195519 20 281 4.8 14.5 0.00 0.10 0.10 60 1022.2
20260905194519 20 275 6.4 16.1 0.00 0.10 0.10 60 1022.0
20260905193520 20 276 6.4 16.1 0.00 0.10 0.10 59 1022.0
20260905192519 20 282 4.8 17.7 0.00 0.10 0.10 59 1021.9
20260905191518 20 273 6.4 14.5 0.00 0.10 0.10 60 1021.8
20260905190519 20 273 4.8 14.5 0.00 0.10 0.10 60 1021.7
20260905185519 20 274 4.8 11.3 0.00 0.10 0.10 61 1021.6
20260905184517 20 278 4.8 16.1 0.00 0.10 0.10 60 1021.6
20260905183521 20 285 6.4 17.7 0.00 0.10 0.10 60 1021.3
20260905182519 20 284 6.4 16.1 0.00 0.10 0.10 59 1021.2
20260905181520 21 277 3.2 11.3 0.00 0.10 0.10 58 1021.1
20260905180517 21 278 6.4 14.5 0.00 0.10 0.10 57 1021.0
20260905175544 21 286 8.0 17.7 0.00 0.10 0.10 56 1020.7
20260905174516 21 284 9.7 20.9 0.00 0.10 0.10 56 1020.7
20260905173533 21 278 6.4 14.5 0.00 0.10 0.10 55 1020.4
20260905172518 21 280 6.4 25.7 0.00 0.10 0.10 54 1020.3
20260905171517 22 273 8.0 29.0 0.00 0.10 0.10 53 1020.2
20260905170520 22 276 8.0 22.5 0.00 0.10 0.10 52 1020.4
20260905165539 22 279 9.7 25.7 0.00 0.10 0.10 52 1020.2
20260905164517 22 275 8.0 22.5 0.00 0.10 0.10 51 1020.1
20260905163519 22 280 9.7 22.5 0.00 0.10 0.10 50 1020.0
20260905162518 22 271 8.0 16.1 0.00 0.10 0.10 49 1019.9
20260905161517 23 273 11.3 35.4 0.00 0.10 0.10 49 1019.9
20260905160519 23 270 9.7 35.4 0.00 0.10 0.10 48 1019.8
20260905155519 23 277 11.3 27.4 0.00 0.10 0.10 48 1019.8
20260905154519 23 263 8.0 25.7 0.00 0.10 0.10 48 1019.8
20260905153519 23 273 12.9 33.8 0.00 0.10 0.10 47 1019.8
20260905152518 24 269 8.0 24.1 0.00 0.10 0.10 47 1019.8
20260905151518 23 272 11.3 29.0 0.00 0.10 0.10 48 1019.8
20260905150518 23 280 11.3 27.4 0.00 0.10 0.10 48 1019.8
20260905145518 23 271 11.3 27.4 0.00 0.10 0.10 48 1019.7
20260905144539 23 277 14.5 33.8 0.00 0.10 0.10 48 1019.8
20260905143519 23 264 9.7 24.1 0.00 0.10 0.10 49 1019.7
20260905142518 23 282 12.9 35.4 0.00 0.10 0.10 49 1019.8
20260905141600 23 273 11.3 33.8 0.00 0.10 0.10 49 1019.9
20260905140540 23 265 8.0 19.3 0.00 0.10 0.10 50 1019.8
20260905135517 23 273 12.9 32.2 0.00 0.10 0.10 51 1019.8
20260905134518 23 266 8.0 25.7 0.00 0.10 0.10 52 1020.1
20260905133520 23 272 8.0 25.7 0.00 0.10 0.10 51 1020.1
20260905132519 23 274 12.9 46.7 0.00 0.10 0.10 51 1020.2
20260905131517 23 267 9.7 33.8 0.00 0.10 0.10 52 1020.3
20260905130518 23 269 9.7 24.1 0.00 0.10 0.10 52 1020.3
20260905125524 23 282 11.3 30.6 0.00 0.10 0.10 52 1020.3
20260905124540 23 280 9.7 25.7 0.00 0.10 0.10 52 1020.5
20260905123540 23 277 11.3 27.4 0.00 0.10 0.10 53 1020.5
20260905122538 23 267 9.7 32.2 0.00 0.10 0.10 53 1020.6
20260905121520 22 268 8.0 20.9 0.00 0.10 0.10 54 1020.5
20260905120518 22 254 11.3 27.4 0.00 0.10 0.10 54 1020.4
20260905115519 22 260 9.7 25.7 0.00 0.10 0.10 56 1020.4
20260905114520 22 254 11.3 32.2 0.00 0.10 0.10 57 1020.7
20260905113518 22 256 9.7 25.7 0.00 0.10 0.10 57 1020.6
20260905112603 21 251 8.0 19.3 0.00 0.10 0.10 57 1020.6
20260905111518 21 261 6.4 20.9 0.00 0.10 0.10 59 1020.6
20260905110521 21 256 9.7 22.5 0.00 0.10 0.10 61 1020.6
20260905105518 21 268 12.9 32.2 0.00 0.10 0.10 63 1020.6
20260905104520 21 277 12.9 33.8 0.00 0.10 0.10 66 1020.6
20260905103520 20 279 11.3 32.2 0.00 0.10 0.10 69 1020.5
20260905102518 19 273 9.7 33.8 0.00 0.10 0.10 74 1020.6
20260905101518 18 271 9.7 20.9 0.00 0.10 0.10 75 1020.7
20260905100519 18 274 9.7 27.4 0.00 0.10 0.10 75 1020.8
20260905095519 18 276 8.0 24.1 0.00 0.10 0.10 77 1020.7
20260905094517 18 267 8.0 25.7 0.00 0.10 0.10 77 1020.6
20260905093520 18 270 8.0 20.9 0.00 0.10 0.10 78 1020.7
20260905092517 18 267 6.4 17.7 0.00 0.10 0.10 79 1020.7
20260905091557 17 267 4.8 14.5 0.00 0.10 0.10 80 1020.7
20260905090520 17 261 6.4 14.5 0.05 0.10 0.10 80 1020.6
20260905085519 17 252 6.4 20.9 0.08 0.10 0.10 80 1020.6
20260905084518 16 226 4.8 9.7 0.08 0.10 0.10 83 1020.6
20260905083517 16 213 8.0 16.1 0.08 0.10 0.10 83 1020.6
20260905082519 16 237 1.6 6.4 0.08 0.10 0.10 84 1020.9
20260905081518 16 255 3.2 11.3 0.05 0.08 0.08 81 1021.1
20260905080517 16 260 3.2 9.7 0.03 0.05 0.05 77 1021.3
20260905075518 17 290 3.2 12.9 0.00 0.03 0.03 75 1021.1
20260905074517 16 241 3.2 9.7 0.00 0.03 0.03 75 1021.3
20260905073541 16 250 3.2 11.3 0.00 0.03 0.03 77 1021.4
20260905072519 16 263 1.6 6.4 0.00 0.03 0.03 78 1021.0
20260905071537 16 266 3.2 8.0 0.00 0.03 0.03 79 1021.4
20260905070519 16 264 3.2 9.7 0.03 0.03 0.03 82 1021.2
20260905065558 16 226 3.2 9.7 0.03 0.03 0.03 81 1020.5
20260905064519 16 298 1.6 6.4 0.03 0.03 0.03 81 1020.6
20260905063519 16 275 3.2 14.5 0.00 0.00 0.00 77 1021.3
20260905062517 16 240 3.2 8.0 0.00 0.00 0.00 76 1021.0
20260905061517 16 306 3.2 11.3 0.00 0.00 0.00 75 1020.1
20260905060517 17 336 11.3 20.9 0.00 0.00 0.00 70 1020.3
20260905055520 18 352 11.3 20.9 0.00 0.00 0.00 63 1020.1
20260905054540 18 337 17.7 32.2 0.00 0.00 0.00 59 1020.1
20260905053538 18 346 8.0 17.7 0.00 0.00 0.00 61 1019.3
20260905052538 18 336 8.0 12.9 0.00 0.00 0.00 60 1019.3
20260905051518 18 349 6.4 11.3 0.00 0.00 0.00 61 1018.4
20260905050517 18 350 9.7 17.7 0.00 0.00 0.00 63 1018.3
20260905045558 18 351 6.4 14.5 0.00 0.00 0.00 65 1017.9
20260905044520 18 335 4.8 9.7 0.00 0.00 0.00 68 1017.7
20260905043518 18 353 1.6 6.4 0.00 0.00 0.00 70 1017.5
20260905042537 19 29 3.2 8.0 0.00 0.00 0.00 70 1017.7
20260905041519 19 345 3.2 6.4 0.00 0.00 0.00 68 1017.8
20260905040520 20 351 3.2 6.4 0.00 0.00 0.00 65 1017.6
20260905035520 20 4 3.2 11.3 0.00 0.00 0.00 64 1017.2
20260905034537 20 346 8.0 19.3 0.00 0.00 0.00 62 1017.3
20260905033519 21 351 8.0 20.9 0.00 0.00 0.00 64 1017.2
20260905032519 21 349 11.3 20.9 0.00 0.00 0.00 57 1017.1
20260905031519 22 355 17.7 35.4 0.00 0.00 0.00 57 1016.2
20260905030519 23 341 11.3 33.8 0.00 0.00 0.00 56 1015.9
20260905025517 23 246 6.4 14.5 0.00 0.00 0.00 54 1014.5
20260905024539 25 241 9.7 22.5 0.00 0.00 0.00 49 1014.6
20260905023517 24 265 6.4 16.1 0.00 0.00 0.00 47 1014.3
20260905022519 24 265 6.4 19.3 0.00 0.00 0.00 48 1014.0
20260905021517 24 249 3.2 9.7 0.00 0.00 0.00 48 1014.0
20260905020517 23 258 4.8 14.5 0.00 0.00 0.00 49 1013.9
20260905015518 24 299 4.8 17.7 0.00 0.00 0.00 48 1014.3
20260905014519 24 257 4.8 17.7 0.00 0.00 0.00 48 1013.8
20260905013539 24 282 6.4 16.1 0.00 0.00 0.00 48 1013.8
20260905012518 24 282 6.4 16.1 0.00 0.00 0.00 47 1013.8
20260905011538 24 269 4.8 12.9 0.00 0.00 0.00 47 1013.7
20260905010517 24 260 4.8 12.9 0.00 0.00 0.00 47 1013.6
20260905005519 23 259 4.8 11.3 0.00 0.00 0.00 48 1013.4
20260905004517 23 236 3.2 11.3 0.00 0.00 0.00 48 1013.5
20260905003517 23 233 4.8 11.3 0.00 0.00 0.00 48 1013.6
20260905002520 23 236 3.2 9.7 0.00 0.00 0.00 48 1013.5
20260905001517 23 231 6.4 14.5 0.00 0.00 0.00 48 1013.5
20260905000519 23 245 3.2 8.0 0.00 0.00 0.00 48 1013.3
20260904235519 23 227 6.4 14.5 0.00 0.00 0.00 50 1013.2
20260904234538 22 256 3.2 6.4 0.00 0.00 0.00 51 1013.2
20260904233540 22 241 3.2 8.0 0.00 0.00 0.00 52 1013.2
20260904232539 21 257 1.6 9.7 0.00 0.00 0.00 55 1013.1
20260904231518 20 233 3.2 8.0 0.00 0.00 0.00 61 1013.2
20260904230520 19 252 1.6 4.8 0.00 0.00 0.00 66 1013.1
20260904225518 18 324 0.0 1.6 0.00 0.00 0.00 67 1013.1
20260904224518 18 300 0.0 3.2 0.00 0.00 0.00 67 1012.9
20260904223519 18 0.0 0.0 0.00 0.00 0.00 67 1012.8